sat.trackr.live / text

‹ back to catalog

STARLINK-6035

NORAD 56323 · 2023-058G

PAYLOAD ACTIVE UNKNOWN

§ Identity

Operator
Country
US
Launch date
2023-04-27
Launch site
AFWTR
Launch vehicle
Mass (kg)
RCS (m²)

Purposes: comms

External: N2YO · Heavens-Above · Gunter

§ Orbital elements

Epoch: 2026-09-20T22:00:03.000096Z

Period
94.82 min
Inclination
97.2879°
Eccentricity
0.0002083
Mean motion
15.18701033 rev/d
Perigee alt
508.3 km
Apogee alt
511.2 km
Semi-major
6,887.9 km
B*
3.9188e-3
RAAN
257.8135°
Arg perigee
67.7680°
Mean anomaly
126.4503°
Rev number
578

§ Raw data

STARLINK-60351 56323U 23058G   26263.91670139  .00082082  00000+0  39188-2 0  99922 56323  97.2879 257.8135 0002083  67.7680 126.4503 15.18701033  5781

JSON: /api/v1/satellites/56323 · /tle

For live sub-satellite position, see the globe view (requires WebGL).

§ Visibility from observer

Set your observer location to see the next 7 days of passes ≥ 10°. The values pass through the URL so the page stays shareable.

No JS? Fill the form by hand. The geolocation button needs JavaScript.